When you browse on this site, cookies collect data to enhance your experience and personalize the content and advertising you see.
Visit our Privacy Policy to learn more. By continuing to use the site, you agree to this use of cookies and data.
  • In Netherlands
  • List of Countries
  • For 7 days
  • Water Temperature
  • Satellite Maps
  • Weather Map
  • Weather Widgets
  • user-avatar
    Login

    Hourly Weather Sevilla

    Today, 18 November, Sunday

    Time Temperature Precipitation Wind Pressure Humidity
    00:00 +15°C° 0.1 mm 4 mps 755 mmHg 89%
    01:00 +15°C° 0.1 mm 4 mps 755 mmHg 89%
    02:00 +15°C° 0.1 mm 4 mps 754 mmHg 89%
    03:00 +14°C° 0.1 mm 3 mps 754 mmHg 90%
    04:00 +14°C° 0 mm 3 mps 754 mmHg 91%
    05:00 +14°C° 0 mm 3 mps 754 mmHg 91%
    06:00 +14°C° 0 mm 3 mps 754 mmHg 92%
    07:00 +16°C° 0 mm 2 mps 754 mmHg 86%
    08:00 +17°C° 0 mm 2 mps 755 mmHg 81%
    09:00 +19°C° 0 mm 1 mps 755 mmHg 75%
    10:00 +20°C° 0 mm 1 mps 754 mmHg 69%
    11:00 +20°C° 0 mm 2 mps 754 mmHg 64%
    12:00 +21°C° 0 mm 2 mps 754 mmHg 58%
    13:00 +21°C° 0 mm 3 mps 753 mmHg 60%
    14:00 +21°C° 0 mm 4 mps 753 mmHg 61%
    15:00 +21°C° 0 mm 5 mps 753 mmHg 63%
    16:00 +20°C° 0 mm 5 mps 753 mmHg 67%
    17:00 +19°C° 0 mm 6 mps 753 mmHg 72%
    18:00 +17°C° 0 mm 7 mps 753 mmHg 76%
    19:00 +17°C° 0 mm 6 mps 753 mmHg 76%
    20:00 +17°C° 0 mm 6 mps 752 mmHg 76%
    21:00 +17°C° 0 mm 6 mps 752 mmHg 77%
    22:00 +17°C° 0 mm 6 mps 752 mmHg 76%
    23:00 +17°C° 0 mm 6 mps 752 mmHg 76%

    Tomorrow, 19 November, Monday

    Time Temperature Precipitation Wind Pressure Humidity
    00:00 +16°C° 0 mm 6 mps 751 mmHg 76%
    01:00 +16°C° 0 mm 6 mps 751 mmHg 75%
    02:00 +16°C° 0 mm 6 mps 750 mmHg 74%
    03:00 +16°C° 0 mm 6 mps 749 mmHg 72%
    04:00 +16°C° 0 mm 6 mps 749 mmHg 72%
    05:00 +16°C° 0 mm 6 mps 749 mmHg 71%
    06:00 +17°C° 0 mm 6 mps 748 mmHg 70%
    07:00 +19°C° 0 mm 6 mps 748 mmHg 66%
    08:00 +19°C° 0 mm 6 mps 748 mmHg 62%
    09:00 +20°C° 0 mm 6 mps 748 mmHg 58%
    10:00 +21°C° 0.1 mm 6 mps 747 mmHg 55%
    11:00 +22°C° 0.1 mm 6 mps 747 mmHg 51%
    12:00 +23°C° 0.1 mm 6 mps 746 mmHg 47%
    13:00 +22°C° 0.6 mm 7 mps 746 mmHg 52%
    14:00 +21°C° 0.6 mm 8 mps 746 mmHg 57%
    15:00 +19°C° 0.6 mm 9 mps 746 mmHg 62%
    16:00 +18°C° 1 mm 9 mps 746 mmHg 67%
    17:00 +17°C° 1 mm 8 mps 746 mmHg 73%
    18:00 +16°C° 1 mm 8 mps 746 mmHg 79%
    19:00 +15°C° 0.1 mm 8 mps 746 mmHg 78%
    20:00 +15°C° 0.1 mm 8 mps 747 mmHg 77%
    21:00 +15°C° 0.1 mm 8 mps 747 mmHg 77%
    22:00 +13°C° 0.2 mm 8 mps 747 mmHg 76%
    23:00 +13°C° 0.2 mm 8 mps 747 mmHg 75%

    Day after tomorrow, 20 November, Tuesday

    Time Temperature Precipitation Wind Pressure Humidity
    00:00 +13°C° 0.2 mm 8 mps 747 mmHg 74%
    01:00 +13°C° 0.3 mm 8 mps 747 mmHg 76%
    02:00 +12°C° 0.3 mm 8 mps 747 mmHg 77%
    03:00 +12°C° 0.3 mm 8 mps 747 mmHg 78%
    04:00 +12°C° 1.2 mm 7 mps 747 mmHg 79%
    05:00 +12°C° 1.2 mm 7 mps 748 mmHg 79%
    06:00 +13°C° 1.2 mm 6 mps 748 mmHg 80%
    07:00 +13°C° 1 mm 6 mps 749 mmHg 82%
    08:00 +14°C° 1 mm 6 mps 750 mmHg 83%
    09:00 +14°C° 1 mm 6 mps 751 mmHg 85%
    10:00 +15°C° 0.1 mm 6 mps 751 mmHg 79%
    11:00 +16°C° 0.1 mm 6 mps 752 mmHg 73%
    12:00 +17°C° 0.1 mm 6 mps 752 mmHg 66%
    13:00 +17°C° 0 mm 6 mps 752 mmHg 63%
    14:00 +19°C° 0 mm 6 mps 752 mmHg 60%
    15:00 +19°C° 0 mm 5 mps 753 mmHg 56%
    16:00 +17°C° 0 mm 5 mps 753 mmHg 61%
    17:00 +16°C° 0 mm 5 mps 753 mmHg 65%
    18:00 +15°C° 0 mm 5 mps 753 mmHg 69%
    19:00 +15°C° 0 mm 5 mps 754 mmHg 70%
    20:00 +15°C° 0 mm 5 mps 754 mmHg 71%
    21:00 +15°C° 0 mm 5 mps 755 mmHg 72%
    22:00 +15°C° 0 mm 5 mps 755 mmHg 73%
    23:00 +14°C° 0 mm 5 mps 755 mmHg 73%

    21 November, Wednesday

    Time Temperature Precipitation Wind Pressure Humidity
    00:00 +14°C° 0 mm 5 mps 755 mmHg 73%
    01:00 +14°C° 0 mm 6 mps 755 mmHg 73%
    02:00 +14°C° 0 mm 6 mps 755 mmHg 73%
    03:00 +14°C° 0 mm 7 mps 755 mmHg 73%
    04:00 +14°C° 0 mm 7 mps 755 mmHg 73%
    05:00 +14°C° 0 mm 7 mps 756 mmHg 73%
    06:00 +14°C° 0 mm 7 mps 756 mmHg 72%
    07:00 +15°C° 0 mm 7 mps 757 mmHg 67%
    08:00 +17°C° 0 mm 7 mps 757 mmHg 62%
    09:00 +18°C° 0 mm 7 mps 758 mmHg 57%
    10:00 +20°C° 0 mm 7 mps 758 mmHg 52%
    11:00 +21°C° 0 mm 7 mps 758 mmHg 47%
    12:00 +22°C° 0 mm 6 mps 758 mmHg 42%
    13:00 +22°C° 0 mm 5 mps 758 mmHg 44%
    14:00 +21°C° 0 mm 5 mps 758 mmHg 46%
    15:00 +21°C° 0 mm 4 mps 758 mmHg 48%
    16:00 +20°C° 0 mm 4 mps 758 mmHg 53%
    17:00 +18°C° 0 mm 3 mps 759 mmHg 58%
    18:00 +17°C° 0 mm 3 mps 759 mmHg 62%
    19:00 +17°C° 0 mm 3 mps 759 mmHg 63%
    20:00 +16°C° 0 mm 2 mps 760 mmHg 63%
    21:00 +16°C° 0 mm 2 mps 760 mmHg 64%
    22:00 +16°C° 0 mm 2 mps 760 mmHg 64%
    23:00 +16°C° 0 mm 2 mps 760 mmHg 64%

    22 November, Thursday

    Time Temperature Precipitation Wind Pressure Humidity
    00:00 +15°C° 0 mm 2 mps 760 mmHg 64%
    01:00 +14°C° 0 mm 3 mps 760 mmHg 64%
    02:00 +14°C° 0 mm 3 mps 760 mmHg 64%
    03:00 +14°C° 0 mm 4 mps 760 mmHg 64%
    04:00 +14°C° 0 mm 4 mps 760 mmHg 63%
    05:00 +14°C° 0 mm 4 mps 760 mmHg 62%
    06:00 +14°C° 0 mm 4 mps 760 mmHg 62%
    07:00 +16°C° 0 mm 5 mps 760 mmHg 58%
    08:00 +17°C° 0 mm 5 mps 760 mmHg 54%
    09:00 +20°C° 0 mm 5 mps 760 mmHg 50%
    10:00 +21°C° 0 mm 5 mps 760 mmHg 46%
    11:00 +22°C° 0 mm 5 mps 760 mmHg 42%
    12:00 +23°C° 0 mm 4 mps 759 mmHg 38%
    13:00 +22°C° 0 mm 4 mps 759 mmHg 38%
    14:00 +22°C° 0 mm 4 mps 759 mmHg 39%
    15:00 +22°C° 0 mm 3 mps 759 mmHg 40%
    16:00 +21°C° 0 mm 3 mps 760 mmHg 42%
    17:00 +19°C° 0 mm 3 mps 760 mmHg 45%
    18:00 +18°C° 0 mm 3 mps 760 mmHg 47%
    19:00 +17°C° 0 mm 2 mps 761 mmHg 48%
    20:00 +17°C° 0 mm 2 mps 761 mmHg 50%
    21:00 +17°C° 0 mm 2 mps 761 mmHg 51%
    22:00 +16°C° 0 mm 2 mps 761 mmHg 51%
    23:00 +16°C° 0 mm 2 mps 761 mmHg 51%

    23 November, Friday

    Time Temperature Precipitation Wind Pressure Humidity
    00:00 +16°C° 0 mm 2 mps 761 mmHg 51%
    01:00 +16°C° 0 mm 2 mps 761 mmHg 51%
    02:00 +16°C° 0 mm 3 mps 761 mmHg 51%
    03:00 +16°C° 0 mm 3 mps 761 mmHg 51%
    04:00 +14°C° 0 mm 3 mps 762 mmHg 51%
    05:00 +14°C° 0 mm 3 mps 762 mmHg 51%
    06:00 +14°C° 0 mm 3 mps 762 mmHg 51%
    07:00 +17°C° 0 mm 3 mps 762 mmHg 49%
    08:00 +18°C° 0 mm 3 mps 762 mmHg 47%
    09:00 +20°C° 0 mm 3 mps 762 mmHg 45%
    10:00 +21°C° 0 mm 2 mps 762 mmHg 42%
    11:00 +24°C° 0 mm 2 mps 762 mmHg 38%
    12:00 +25°C° 0 mm 1 mps 761 mmHg 34%
    13:00 +25°C° 0 mm 1 mps 761 mmHg 36%
    14:00 +25°C° 0 mm 2 mps 761 mmHg 38%
    15:00 +24°C° 0 mm 2 mps 761 mmHg 40%
    16:00 +23°C° 0 mm 2 mps 761 mmHg 43%
    17:00 +21°C° 0 mm 2 mps 761 mmHg 45%
    18:00 +19°C° 0 mm 3 mps 761 mmHg 48%
    19:00 +19°C° 0 mm 2 mps 761 mmHg 48%
    20:00 +18°C° 0 mm 2 mps 761 mmHg 48%
    21:00 +18°C° 0 mm 2 mps 761 mmHg 47%
    22:00 +18°C° 0 mm 2 mps 761 mmHg 47%
    23:00 +17°C° 0 mm 2 mps 761 mmHg 47%
    Show more